When you browse on this site, cookies collect data to enhance your experience and personalize the content and advertising you see.
Visit our Privacy Policy to learn more. By continuing to use the site, you agree to this use of cookies and data.
  • en France
  • Liste des pays
  • À 7 jours
  • Température de l'eau
  • Carte satellitaire
  • Carte météo
  • Widgets météo
  • user-avatar
    Se connecter

    Météo par heure à Molevo

    Ce jour, 24 Janvier, Jeudi

    Heure Température Précipitation Vent Pression Humidité
    00:00 -17°C° 0 mm 2 m/s 742 mmHg 97%
    01:00 -18°C° 0 mm 2 m/s 742 mmHg 97%
    02:00 -18°C° 0 mm 2 m/s 742 mmHg 97%
    03:00 -18°C° 0 mm 2 m/s 742 mmHg 96%
    04:00 -18°C° 0 mm 2 m/s 742 mmHg 95%
    05:00 -18°C° 0 mm 2 m/s 742 mmHg 94%
    06:00 -19°C° 0 mm 2 m/s 742 mmHg 94%
    07:00 -19°C° 0 mm 2 m/s 742 mmHg 93%
    08:00 -19°C° 0 mm 2 m/s 742 mmHg 93%
    09:00 -16°C° 0 mm 1 m/s 742 mmHg 91%
    10:00 -14°C° 0 mm 1 m/s 742 mmHg 90%
    11:00 -13°C° 0 mm 1 m/s 743 mmHg 89%
    12:00 -12°C° 0 mm 1 m/s 743 mmHg 89%
    13:00 -11°C° 0 mm 1 m/s 743 mmHg 89%
    14:00 -10°C° 0 mm 1 m/s 743 mmHg 90%
    15:00 -11°C° 0 mm 1 m/s 743 mmHg 90%
    16:00 -14°C° 0 mm 2 m/s 744 mmHg 91%
    17:00 -16°C° 0 mm 2 m/s 744 mmHg 92%
    18:00 -15°C° 0 mm 2 m/s 744 mmHg 93%
    19:00 -15°C° 0 mm 2 m/s 745 mmHg 95%
    20:00 -14°C° 0 mm 2 m/s 745 mmHg 96%
    21:00 -14°C° 0 mm 2 m/s 745 mmHg 96%
    22:00 -12°C° 0 mm 1 m/s 746 mmHg 96%
    23:00 -11°C° 0 mm 1 m/s 746 mmHg 96%

    Demain, 25 Janvier, Vendredi

    Heure Température Précipitation Vent Pression Humidité
    00:00 -12°C° 0 mm 1 m/s 747 mmHg 96%
    01:00 -14°C° 0 mm 1 m/s 747 mmHg 96%
    02:00 -17°C° 0 mm 2 m/s 747 mmHg 96%
    03:00 -17°C° 0 mm 2 m/s 747 mmHg 96%
    04:00 -18°C° 0 mm 2 m/s 747 mmHg 96%
    05:00 -19°C° 0 mm 2 m/s 748 mmHg 96%
    06:00 -19°C° 0 mm 2 m/s 748 mmHg 96%
    07:00 -19°C° 0 mm 2 m/s 748 mmHg 96%
    08:00 -20°C° 0 mm 2 m/s 748 mmHg 96%
    09:00 -18°C° 0 mm 2 m/s 749 mmHg 94%
    10:00 -17°C° 0 mm 2 m/s 749 mmHg 92%
    11:00 -17°C° 0 mm 3 m/s 749 mmHg 89%
    12:00 -16°C° 0 mm 3 m/s 749 mmHg 89%
    13:00 -15°C° 0 mm 3 m/s 749 mmHg 88%
    14:00 -15°C° 0 mm 3 m/s 749 mmHg 88%
    15:00 -16°C° 0 mm 3 m/s 748 mmHg 88%
    16:00 -16°C° 0 mm 3 m/s 748 mmHg 88%
    17:00 -17°C° 0 mm 3 m/s 748 mmHg 88%
    18:00 -18°C° 0 mm 4 m/s 748 mmHg 87%
    19:00 -18°C° 0 mm 4 m/s 747 mmHg 86%
    20:00 -17°C° 0 mm 4 m/s 747 mmHg 85%
    21:00 -17°C° 0 mm 4 m/s 746 mmHg 85%
    22:00 -17°C° 0 mm 4 m/s 746 mmHg 84%
    23:00 -17°C° 0 mm 4 m/s 745 mmHg 84%

    Après-demain, 26 Janvier, Samedi

    Heure Température Précipitation Vent Pression Humidité
    00:00 -18°C° 0 mm 5 m/s 744 mmHg 84%
    01:00 -18°C° 0 mm 5 m/s 744 mmHg 84%
    02:00 -18°C° 0 mm 5 m/s 743 mmHg 84%
    03:00 -18°C° 0.2 mm 5 m/s 742 mmHg 87%
    04:00 -18°C° 0.2 mm 5 m/s 741 mmHg 90%
    05:00 -18°C° 0.2 mm 5 m/s 740 mmHg 93%
    06:00 -18°C° 0.6 mm 5 m/s 739 mmHg 93%
    07:00 -18°C° 0.6 mm 5 m/s 739 mmHg 94%
    08:00 -17°C° 0.6 mm 4 m/s 738 mmHg 94%
    09:00 -17°C° 0.2 mm 4 m/s 737 mmHg 94%
    10:00 -16°C° 0.2 mm 4 m/s 737 mmHg 93%
    11:00 -16°C° 0.2 mm 4 m/s 736 mmHg 93%
    12:00 -15°C° 0.1 mm 3 m/s 736 mmHg 93%
    13:00 -14°C° 0.1 mm 3 m/s 735 mmHg 93%
    14:00 -13°C° 0.1 mm 3 m/s 734 mmHg 92%
    15:00 -12°C° 0.1 mm 2 m/s 734 mmHg 93%
    16:00 -12°C° 0.1 mm 2 m/s 733 mmHg 95%
    17:00 -10°C° 0.1 mm 1 m/s 733 mmHg 96%
    18:00 -10°C° 0.1 mm 1 m/s 732 mmHg 96%
    19:00 -10°C° 0.1 mm 1 m/s 732 mmHg 97%
    20:00 -10°C° 0.1 mm 1 m/s 732 mmHg 97%
    21:00 -11°C° 0.2 mm 1 m/s 731 mmHg 97%
    22:00 -11°C° 0.2 mm 1 m/s 731 mmHg 97%
    23:00 -11°C° 0.2 mm 0 m/s 731 mmHg 97%

    27 Janvier, Dimanche

    Heure Température Précipitation Vent Pression Humidité
    00:00 -12°C° 0 mm 0 m/s 731 mmHg 97%
    01:00 -13°C° 0 mm 0 m/s 731 mmHg 97%
    02:00 -14°C° 0 mm 0 m/s 731 mmHg 97%
    03:00 -14°C° 0 mm 1 m/s 730 mmHg 97%
    04:00 -14°C° 0 mm 1 m/s 730 mmHg 97%
    05:00 -14°C° 0 mm 1 m/s 730 mmHg 97%
    06:00 -15°C° 0 mm 1 m/s 730 mmHg 98%
    07:00 -15°C° 0 mm 1 m/s 730 mmHg 98%
    08:00 -15°C° 0 mm 1 m/s 731 mmHg 98%
    09:00 -14°C° 0 mm 1 m/s 731 mmHg 97%
    10:00 -15°C° 0 mm 2 m/s 731 mmHg 97%
    11:00 -14°C° 0 mm 2 m/s 731 mmHg 96%
    12:00 -14°C° 0 mm 2 m/s 732 mmHg 94%
    13:00 -13°C° 0 mm 2 m/s 732 mmHg 93%
    14:00 -13°C° 0 mm 2 m/s 732 mmHg 92%
    15:00 -14°C° 0 mm 2 m/s 732 mmHg 93%
    16:00 -15°C° 0 mm 2 m/s 732 mmHg 94%
    17:00 -16°C° 0 mm 2 m/s 733 mmHg 95%
    18:00 -17°C° 0 mm 2 m/s 733 mmHg 95%
    19:00 -18°C° 0 mm 2 m/s 734 mmHg 96%
    20:00 -19°C° 0 mm 2 m/s 734 mmHg 96%
    21:00 -20°C° 0 mm 2 m/s 734 mmHg 97%
    22:00 -21°C° 0 mm 2 m/s 735 mmHg 98%
    23:00 -23°C° 0 mm 2 m/s 735 mmHg 99%

    28 Janvier, Lundi

    Heure Température Précipitation Vent Pression Humidité
    00:00 -23°C° 0 mm 2 m/s 735 mmHg 99%
    01:00 -21°C° 0 mm 1 m/s 736 mmHg 99%
    02:00 -21°C° 0 mm 1 m/s 736 mmHg 99%
    03:00 -22°C° 0 mm 1 m/s 736 mmHg 99%
    04:00 -22°C° 0 mm 1 m/s 736 mmHg 99%
    05:00 -23°C° 0 mm 0 m/s 737 mmHg 99%
    06:00 -23°C° 0 mm 0 m/s 737 mmHg 99%
    07:00 -23°C° 0 mm 0 m/s 737 mmHg 99%
    08:00 -23°C° 0 mm 0 m/s 737 mmHg 99%
    09:00 -21°C° 0 mm 1 m/s 737 mmHg 97%
    10:00 -19°C° 0 mm 1 m/s 738 mmHg 95%
    11:00 -19°C° 0 mm 2 m/s 738 mmHg 93%
    12:00 -18°C° 0 mm 2 m/s 738 mmHg 92%
    13:00 -17°C° 0 mm 2 m/s 737 mmHg 91%
    14:00 -17°C° 0 mm 3 m/s 737 mmHg 91%
    15:00 -17°C° 0 mm 3 m/s 737 mmHg 90%
    16:00 -18°C° 0 mm 3 m/s 737 mmHg 90%
    17:00 -19°C° 0 mm 4 m/s 737 mmHg 90%
    18:00 -18°C° 0.1 mm 4 m/s 736 mmHg 89%
    19:00 -18°C° 0.1 mm 5 m/s 736 mmHg 89%
    20:00 -17°C° 0.1 mm 6 m/s 736 mmHg 89%
    21:00 -17°C° 0.2 mm 6 m/s 736 mmHg 90%
    22:00 -15°C° 0.2 mm 5 m/s 735 mmHg 91%
    23:00 -14°C° 0.2 mm 5 m/s 735 mmHg 93%

    29 Janvier, Mardi

    Heure Température Précipitation Vent Pression Humidité
    00:00 -14°C° 0.1 mm 5 m/s 734 mmHg 93%
    01:00 -13°C° 0.1 mm 5 m/s 734 mmHg 93%
    02:00 -12°C° 0.1 mm 5 m/s 734 mmHg 94%
    03:00 -12°C° 0.1 mm 6 m/s 733 mmHg 93%
    04:00 -11°C° 0.1 mm 6 m/s 732 mmHg 93%
    05:00 -10°C° 0.1 mm 6 m/s 732 mmHg 93%
    06:00 -9°C° 0.1 mm 6 m/s 731 mmHg 93%
    07:00 -8°C° 0.1 mm 6 m/s 731 mmHg 92%
    08:00 -6°C° 0.1 mm 6 m/s 731 mmHg 92%
    09:00 -5°C° 0.2 mm 6 m/s 730 mmHg 92%
    10:00 -4°C° 0.2 mm 7 m/s 730 mmHg 92%
    11:00 -3°C° 0.2 mm 7 m/s 730 mmHg 92%
    12:00 -3°C° 0.6 mm 6 m/s 730 mmHg 93%
    13:00 -2°C° 0.6 mm 6 m/s 730 mmHg 94%
    14:00 -2°C° 0.6 mm 6 m/s 730 mmHg 95%
    15:00 -1°C° 0.1 mm 5 m/s 730 mmHg 95%
    16:00 -1°C° 0.1 mm 5 m/s 730 mmHg 96%
    17:00 -1°C° 0.1 mm 5 m/s 730 mmHg 96%
    18:00 -1°C° 0 mm 5 m/s 731 mmHg 95%
    19:00 -1°C° 0 mm 5 m/s 731 mmHg 94%
    20:00 -2°C° 0 mm 5 m/s 731 mmHg 92%
    21:00 -2°C° 0.1 mm 5 m/s 732 mmHg 92%
    22:00 -2°C° 0.1 mm 5 m/s 732 mmHg 92%
    23:00 -1°C° 0.1 mm 5 m/s 733 mmHg 92%
    Voir plus